FW8253 Weather Reports


time (UTC)temp
C
wind
direction
speed
KPH
gust
KPH
rain 1hr
cm
rain 24hr
cm
rain mn
cm
humidity
%
barometer
mb
20260508124749 16 257 0.0 0.0 0.00 0.00 0.00 84 1018.7
20260508124245 16 250 0.0 0.0 0.00 0.00 0.00 85 1018.8
20260508123743 15 17 0.0 0.0 0.00 0.00 0.00 89 1019.0
20260508123241 15 250 0.0 0.0 0.00 0.00 0.00 95 1018.8
20260508122737 15 232 0.0 0.0 0.00 0.00 0.00 99 1018.9
20260508122234 15 270 0.0 0.0 0.00 0.00 0.00 99 1018.8
20260508121731 15 232 0.0 0.0 0.00 0.00 0.00 99 1018.9
20260508121230 14 233 0.0 0.0 0.00 0.00 0.00 99 1018.8
20260508120726 14 233 0.0 0.0 0.00 0.00 0.00 99 1018.4
20260508120225 13 232 0.0 0.0 0.00 0.00 0.00 99 1018.5
20260508115722 13 227 0.0 0.0 0.00 0.00 0.00 99 1018.5
20260508115219 13 236 0.0 0.0 0.00 0.00 0.00 99 1018.2
20260508114716 13 237 0.0 0.0 0.00 0.00 0.00 99 1018.3
20260508114212 13 227 0.0 0.0 0.00 0.00 0.00 99 1018.0
20260508113709 12 231 0.0 0.0 0.00 0.00 0.00 99 1018.1
20260508113208 12 235 0.0 0.0 0.00 0.00 0.00 99 1017.9
20260508112703 12 236 0.0 0.0 0.00 0.00 0.00 99 1017.8
20260508112200 12 193 0.0 0.0 0.00 0.00 0.00 99 1017.4
20260508111657 12 193 0.0 0.0 0.00 0.00 0.00 99 1017.6
20260508111155 12 192 0.0 0.0 0.00 0.00 0.00 99 1017.5
20260508110652 12 192 0.0 0.0 0.00 0.00 0.00 99 1017.3
20260508110148 12 181 0.0 0.0 0.00 0.00 0.00 99 1017.4
20260508105643 12 195 0.0 0.0 0.00 0.00 0.00 99 1017.2
20260508105140 12 195 0.0 0.0 0.00 0.00 0.00 99 1017.0
20260508104638 12 195 0.0 0.0 0.00 0.00 0.00 99 1017.1
20260508104135 12 195 0.0 0.0 0.00 0.00 0.00 99 1017.0
20260508103632 12 196 0.0 0.0 0.00 0.00 0.00 99 1016.8
20260508103129 12 195 0.0 0.0 0.00 0.00 0.00 99 1016.7
20260508102626 12 195 0.0 0.0 0.00 0.00 0.00 99 1016.8
20260508102124 12 195 0.0 0.0 0.00 0.00 0.00 99 1016.7
20260508101621 12 195 0.0 0.0 0.00 0.00 0.00 99 1016.9
20260508101118 12 196 0.0 0.0 0.00 0.00 0.00 99 1016.7
20260508100616 12 196 0.0 0.0 0.00 0.00 0.00 99 1016.5
20260508100114 12 196 0.0 0.0 0.00 0.00 0.00 99 1016.4
20260508095610 12 196 0.0 0.0 0.00 0.00 0.00 99 1016.3
20260508095107 12 195 0.0 0.0 0.00 0.00 0.00 99 1016.3
20260508094604 12 195 0.0 0.0 0.00 0.00 0.00 99 1016.3
20260508094101 12 196 0.0 0.0 0.00 0.00 0.00 99 1016.2
20260508093558 12 195 0.0 0.0 0.00 0.00 0.00 99 1016.3
20260508093056 12 196 0.0 0.0 0.00 0.00 0.00 99 1016.0
20260508092553 12 196 0.0 0.0 0.00 0.00 0.00 99 1016.0
20260508092052 12 196 0.0 0.0 0.00 0.00 0.00 99 1015.8
20260508091549 12 195 0.0 0.0 0.00 0.00 0.00 99 1016.0
20260508091045 12 196 0.0 0.0 0.00 0.00 0.00 99 1016.0
20260508090543 12 195 0.0 0.0 0.00 0.00 0.00 99 1015.8
20260508090039 12 195 0.0 0.0 0.00 0.00 0.00 99 1015.4
20260508085536 12 195 0.0 0.0 0.00 0.00 0.00 99 1015.6
20260508085033 12 195 0.0 0.0 0.00 0.00 0.00 99 1015.5
20260508084530 12 196 0.0 0.0 0.00 0.00 0.00 98 1015.7
20260508084027 12 195 0.0 0.0 0.00 0.00 0.00 98 1015.5
20260508083525 12 195 0.0 0.0 0.00 0.00 0.00 98 1015.2
20260508083021 12 195 0.0 0.0 0.00 0.00 0.00 98 1015.3
20260508082517 13 195 0.0 0.0 0.00 0.00 0.00 97 1015.5
20260508082015 13 195 0.0 0.0 0.00 0.00 0.00 97 1015.8
20260508081512 13 195 0.0 0.0 0.00 0.00 0.00 97 1015.4
20260508081008 13 195 0.0 0.0 0.00 0.00 0.00 96 1015.5
20260508080506 13 195 0.0 0.0 0.00 0.00 0.00 96 1015.4
20260508080003 13 195 0.0 0.0 0.00 0.00 0.00 97 1015.7
20260508075459 13 195 0.0 0.0 0.00 0.00 0.00 97 1015.8
20260508074957 13 195 0.0 0.0 0.00 0.00 0.00 97 1015.3
20260508074455 13 195 0.0 0.0 0.00 0.00 0.00 96 1015.6
20260508073951 13 196 0.0 0.0 0.00 0.00 0.00 96 1015.4
20260508073449 13 196 0.0 0.0 0.00 0.00 0.00 96 1015.3
20260508072946 13 195 0.0 0.0 0.00 0.00 0.00 96 1015.5
20260508072442 13 196 0.0 0.0 0.00 0.00 0.00 96 1015.4
20260508071939 13 195 0.0 0.0 0.00 0.00 0.00 96 1015.4
20260508071437 13 195 0.0 0.0 0.00 0.00 0.00 96 1015.3
20260508070935 14 195 0.0 0.0 0.00 0.00 0.00 95 1015.5
20260508070432 14 195 0.0 0.0 0.00 0.00 0.00 93 1015.4
20260508065930 14 195 0.0 0.0 0.00 0.00 0.00 92 1015.4
20260508065428 14 195 0.0 0.0 0.00 0.00 0.00 92 1015.4
20260508064926 14 194 0.0 0.0 0.00 0.00 0.00 92 1015.1
20260508064423 15 196 0.0 0.0 0.00 0.00 0.00 91 1015.2
20260508063920 15 196 0.0 0.0 0.00 0.00 0.00 92 1015.2
20260508063418 15 196 0.0 0.0 0.00 0.00 0.00 91 1015.4
20260508062915 15 196 0.0 0.0 0.00 0.00 0.00 93 1015.1
20260508062413 15 196 0.0 0.0 0.00 0.00 0.00 92 1015.3
20260508061909 15 197 0.0 0.0 0.00 0.00 0.00 94 1015.2
20260508061407 15 197 0.0 0.0 0.00 0.00 0.00 94 1015.3
20260508060903 15 197 0.0 0.0 0.00 0.00 0.00 94 1015.3
20260508060401 15 197 0.0 0.0 0.00 0.00 0.00 94 1015.5
20260508055901 15 197 0.0 0.0 0.00 0.00 0.00 94 1015.3
20260508055359 15 197 0.0 0.0 0.00 0.00 0.00 94 1015.3
20260508054855 15 197 0.0 0.0 0.00 0.00 0.00 93 1015.3
20260508054352 15 196 0.0 0.0 0.00 0.00 0.00 94 1015.3
20260508053849 15 197 0.0 0.0 0.00 0.00 0.00 94 1015.5
20260508053347 15 197 0.0 0.0 0.00 0.00 0.00 93 1015.2
20260508052844 15 197 0.0 0.0 0.00 0.00 0.00 92 1015.2
20260508052342 15 197 0.0 0.0 0.00 0.00 0.00 92 1015.4
20260508051837 16 197 0.0 0.0 0.00 0.00 0.00 90 1015.4
20260508051333 16 196 0.0 0.0 0.00 0.00 0.00 90 1015.2
20260508050829 16 196 0.0 0.0 0.00 0.00 0.00 89 1015.1
20260508050327 16 201 0.0 0.0 0.00 0.00 0.00 90 1015.2
20260508045822 16 254 0.0 0.0 0.00 0.00 0.00 91 1015.2
20260508045320 16 219 0.0 0.0 0.00 0.00 0.00 91 1015.3
20260508044818 16 232 0.0 0.0 0.00 0.00 0.00 92 1015.2
20260508044314 16 200 0.0 0.0 0.00 0.00 0.00 92 1015.2
20260508043810 16 201 0.0 0.0 0.00 0.00 0.00 92 1015.0
20260508043308 16 200 0.0 0.0 0.00 0.00 0.00 91 1015.0
20260508042804 17 201 0.0 0.0 0.00 0.00 0.00 89 1014.9
20260508042306 17 201 0.0 0.0 0.00 0.00 0.00 88 1014.9
20260508041758 17 201 0.0 0.0 0.00 0.00 0.00 87 1014.8
20260508041255 17 201 0.0 0.0 0.00 0.00 0.00 86 1014.6
20260508040751 17 200 0.0 0.0 0.00 0.00 0.00 86 1014.9
20260508040248 17 200 0.0 0.0 0.00 0.00 0.00 85 1014.9
20260508035746 17 199 0.0 0.0 0.00 0.13 0.13 85 1015.0
20260508035243 18 217 0.0 0.0 0.00 0.13 0.13 84 1014.8
20260508034739 18 206 0.0 0.0 0.00 0.13 0.13 84 1014.9
20260508034237 18 193 0.0 0.0 0.00 0.13 0.13 85 1014.8
20260508033734 18 225 0.0 0.0 0.00 0.13 0.13 85 1014.9
20260508033232 18 226 0.0 0.0 0.00 0.13 0.13 83 1014.7
20260508032729 18 229 0.0 0.0 0.00 0.13 0.13 84 1014.6
20260508032226 18 222 0.0 0.0 0.00 0.13 0.13 84 1014.7
20260508031723 18 210 0.0 0.0 0.00 0.13 0.13 87 1014.6
20260508031219 19 7 0.0 0.0 0.00 0.13 0.13 82 1014.6
20260508030716 18 141 0.0 0.0 0.00 0.13 0.13 83 1014.4
20260508030214 18 71 0.0 0.0 0.00 0.13 0.13 87 1014.6
20260508025710 19 215 0.0 0.0 0.00 0.13 0.13 88 1014.4
20260508025207 20 202 0.0 0.0 0.00 0.13 0.13 85 1014.5
20260508024703 19 220 0.0 0.0 0.00 0.13 0.13 88 1014.3
20260508024200 19 233 0.0 0.0 0.00 0.13 0.13 86 1014.2
20260508023656 19 144 0.0 0.0 0.00 0.13 0.13 87 1014.0
20260508023154 20 250 0.0 0.0 0.00 0.13 0.13 87 1013.7
20260508022649 20 124 0.0 0.0 0.00 0.13 0.13 90 1013.9
20260508022147 20 231 0.0 0.0 0.00 0.13 0.13 91 1013.9
20260508021643 20 173 0.0 0.0 0.00 0.13 0.13 90 1014.0
20260508021138 20 229 0.0 0.0 0.00 0.13 0.13 89 1013.9
20260508020636 20 206 0.0 0.0 0.00 0.13 0.13 88 1013.7
20260508020134 20 228 0.0 0.0 0.00 0.13 0.13 91 1013.6
20260508015631 20 68 0.0 0.0 0.00 0.13 0.13 90 1013.7
20260508015128 20 226 0.0 0.0 0.00 0.13 0.13 91 1013.4
20260508014624 20 234 0.0 0.0 0.00 0.13 0.13 92 1013.0
20260508014121 20 228 0.0 0.0 0.00 0.13 0.13 93 1013.2
20260508013617 20 198 0.0 0.0 0.00 0.13 0.13 92 1013.1
20260508013114 20 244 0.0 0.0 0.00 0.13 0.13 94 1012.9
20260508012611 20 206 0.0 0.0 0.00 0.13 0.13 94 1012.8
20260508012108 20 206 0.0 0.0 0.00 0.13 0.13 95 1012.7
20260508011607 20 227 0.0 0.0 0.00 0.13 0.13 95 1012.5
20260508011104 20 230 0.0 0.0 0.00 0.13 0.13 95 1012.4
20260508010600 20 226 0.0 0.0 0.00 0.13 0.13 95 1012.4
20260508010058 20 201 0.0 0.0 0.00 0.13 0.13 97 1012.4
20260508005554 20 237 0.0 0.0 0.00 0.13 0.13 97 1012.3
20260508005051 20 218 0.0 0.0 0.00 0.13 0.13 98 1012.3
20260508004547 20 240 0.0 0.0 0.00 0.13 0.13 98 1012.0
20260508004044 21 236 0.0 0.0 0.00 0.13 0.13 98 1012.1
20260508003540 21 209 0.0 0.0 0.00 0.13 0.13 98 1011.8
20260508003038 21 223 0.0 0.0 0.00 0.13 0.13 98 1011.6
20260508002534 21 224 0.0 0.0 0.00 0.13 0.13 98 1011.6
20260508002032 21 222 0.0 0.0 0.00 0.13 0.13 97 1011.6
20260508001527 21 232 0.0 0.0 0.00 0.13 0.13 97 1011.5
20260508001023 21 183 0.0 0.0 0.00 0.13 0.13 96 1011.6
20260508000519 21 227 0.0 0.0 0.00 0.13 0.13 96 1011.4
20260508000017 22 230 0.0 0.0 0.00 0.13 0.13 96 1011.4
20260507235513 22 202 0.0 0.0 0.00 0.13 0.13 95 1011.4
20260507235011 22 208 0.0 0.0 0.00 0.13 0.13 93 1011.4
20260507234507 22 242 0.0 0.0 0.00 0.13 0.13 94 1011.2
20260507234004 22 225 0.0 0.0 0.00 0.13 0.13 93 1011.3
20260507233500 22 201 0.0 0.0 0.00 0.13 0.13 92 1011.1
20260507232959 22 208 0.0 0.0 0.00 0.13 0.13 93 1010.8
20260507232455 22 233 0.0 0.0 0.00 0.13 0.13 92 1011.1
20260507231953 22 238 0.0 0.0 0.00 0.13 0.13 93 1010.9
20260507231448 23 206 0.0 0.0 0.00 0.13 0.13 91 1011.0
20260507230946 23 239 0.0 0.0 0.00 0.13 0.13 91 1010.9
20260507230443 23 224 0.0 0.0 0.00 0.13 0.13 91 1011.0
20260507225938 23 232 0.0 0.0 0.00 0.13 0.13 90 1011.0
20260507225429 23 236 0.0 0.0 0.00 0.13 0.13 90 1010.7
20260507224925 23 277 0.0 0.0 0.00 0.13 0.13 90 1010.9
20260507224421 23 168 0.0 0.0 0.00 0.13 0.13 87 1011.0
20260507223918 23 229 0.0 0.0 0.00 0.13 0.13 88 1011.0
20260507223414 23 225 0.0 0.0 0.00 0.13 0.13 89 1011.0
20260507222911 23 239 0.0 0.0 0.00 0.13 0.13 87 1011.0
20260507222408 24 236 0.0 0.0 0.00 0.13 0.13 89 1011.1
20260507221905 24 175 0.0 0.0 0.00 0.13 0.13 89 1010.7
20260507221401 24 242 0.0 0.0 0.00 0.13 0.13 88 1010.7
20260507220857 24 241 0.0 0.0 0.00 0.13 0.13 87 1010.7
20260507220355 24 231 0.0 0.0 0.00 0.13 0.13 90 1010.7
20260507215851 25 229 0.0 0.0 0.00 0.13 0.13 91 1010.6
20260507215348 25 213 0.0 0.0 0.00 0.13 0.13 88 1010.6
20260507214845 25 259 0.0 0.0 0.00 0.13 0.13 87 1011.0
20260507214343 26 259 0.0 0.0 0.00 0.13 0.13 84 1010.7
20260507213838 25 239 0.0 0.0 0.00 0.13 0.13 86 1010.9
20260507213335 25 235 0.0 0.0 0.00 0.13 0.13 86 1010.6
20260507212831 25 225 0.0 0.0 0.00 0.13 0.13 85 1010.9
20260507212327 25 253 0.0 0.0 0.00 0.13 0.13 90 1010.9
20260507211824 25 63 0.0 0.0 0.00 0.13 0.13 91 1010.9
20260507211321 23 230 0.0 0.0 0.00 0.13 0.13 93 1010.8
20260507210818 23 221 0.0 0.0 0.00 0.13 0.13 94 1011.0
20260507210315 23 220 0.0 0.0 0.00 0.13 0.13 96 1011.0
20260507205811 23 219 0.0 0.0 0.00 0.13 0.13 98 1011.0
20260507205308 23 217 0.0 0.0 0.00 0.13 0.13 97 1011.0
20260507204804 23 219 0.0 0.0 0.00 0.13 0.13 97 1011.0
20260507204302 23 220 0.0 0.0 0.00 0.13 0.13 97 1011.1
20260507203800 23 208 0.0 0.0 0.00 0.13 0.13 97 1011.0
20260507203258 23 208 0.0 0.0 0.00 0.13 0.13 97 1011.0
20260507202753 22 208 0.0 0.0 0.00 0.13 0.13 97 1011.1
20260507202249 22 208 0.0 0.0 0.00 0.13 0.13 97 1011.1
20260507201744 22 208 0.0 0.0 0.00 0.13 0.13 97 1011.1
20260507201241 23 194 0.0 0.0 0.00 0.13 0.13 98 1011.1
20260507200737 23 202 0.0 0.0 0.00 0.13 0.13 97 1011.0
20260507200233 23 190 0.0 0.0 0.00 0.13 0.13 96 1011.3
20260507195730 23 212 0.0 0.0 0.00 0.13 0.13 96 1011.2
20260507195227 23 208 0.0 0.0 0.00 0.13 0.13 95 1011.2
20260507194724 23 234 0.0 0.0 0.00 0.13 0.13 94 1011.1
20260507194220 23 167 0.0 0.0 0.00 0.13 0.13 96 1011.2
20260507193717 23 177 0.0 0.0 0.00 0.13 0.13 96 1011.1
20260507193214 23 226 0.0 0.0 0.00 0.13 0.13 97 1011.0
20260507192710 23 282 0.0 0.0 0.00 0.13 0.13 97 1011.1
20260507192207 23 234 0.0 0.0 0.00 0.13 0.13 97 1011.2
20260507191703 23 202 0.0 0.0 0.00 0.13 0.13 98 1011.3
20260507191200 23 352 0.0 0.0 0.00 0.13 0.13 99 1011.2
20260507190651 23 305 0.0 0.0 0.00 0.13 0.13 99 1011.1
20260507190149 22 251 0.0 0.0 0.00 0.13 0.13 99 1011.1
20260507185647 22 88 0.0 0.0 0.00 0.13 0.13 99 1011.2
20260507185144 23 232 0.0 0.0 0.00 0.13 0.13 99 1011.3
20260507184642 22 200 0.0 0.0 0.00 0.13 0.13 99 1011.2
20260507184140 22 215 0.0 0.0 0.00 0.13 0.13 99 1011.2
20260507183636 22 96 0.0 0.0 0.00 0.13 0.13 99 1011.1
20260507183133 21 234 0.0 0.0 0.00 0.13 0.13 99 1011.4
20260507182629 21 261 0.0 0.0 0.00 0.13 0.13 99 1011.4
20260507182126 22 238 0.0 0.0 0.00 0.13 0.13 99 1011.5
20260507181622 22 278 0.0 0.0 0.00 0.13 0.13 99 1011.3
20260507181118 21 278 0.0 0.0 0.00 0.13 0.13 99 1011.6
20260507180615 21 228 0.0 0.0 0.00 0.13 0.13 99 1011.4
20260507180112 21 231 0.0 0.0 0.00 0.13 0.13 99 1011.3
20260507175608 21 201 0.0 0.0 0.00 0.13 0.13 99 1011.2
20260507175106 21 208 0.0 0.0 0.00 0.13 0.13 99 1010.9
20260507174602 20 214 0.0 0.0 0.00 0.13 0.13 99 1011.3
20260507174100 20 213 0.0 0.0 0.00 0.13 0.13 99 1011.2
20260507173557 20 207 0.0 0.0 0.00 0.13 0.13 99 1011.0
20260507173054 20 206 0.0 0.0 0.00 0.13 0.13 99 1011.8
20260507172550 20 207 0.0 0.0 0.00 0.13 0.13 99 1012.0
20260507172047 20 206 0.0 0.0 0.00 0.13 0.13 99 1011.8
20260507171542 20 207 0.0 0.0 0.00 0.13 0.13 99 1012.0
20260507171040 20 207 0.0 0.0 0.00 0.13 0.13 99 1011.7
20260507170536 20 197 0.0 0.0 0.00 0.13 0.13 99 1011.9
20260507170034 20 194 0.0 0.0 0.00 0.13 0.13 99 1011.4
20260507165529 20 198 0.0 0.0 0.00 0.13 0.13 99 1012.0
20260507165026 20 242 0.0 0.0 0.00 0.13 0.13 99 1012.1
20260507164522 20 212 0.0 0.0 0.00 0.13 0.13 99 1011.9
20260507164019 20 219 0.0 0.0 0.00 0.13 0.13 99 1012.2
20260507163516 20 256 0.0 0.0 0.00 0.13 0.13 99 1012.4
20260507163015 20 334 0.0 0.0 0.00 0.13 0.13 99 1012.4
20260507162509 20 217 0.0 0.0 0.00 0.13 0.13 99 1012.5
20260507162006 20 182 0.0 0.0 0.00 0.13 0.13 99 1012.3
20260507161502 20 241 0.0 0.0 0.00 0.13 0.13 99 1012.3
20260507160959 20 225 0.0 0.0 0.00 0.13 0.13 99 1012.5
20260507160455 20 217 0.0 0.0 0.00 0.13 0.13 99 1012.5
20260507155951 20 143 0.0 0.0 0.00 0.13 0.13 99 1012.4
20260507155447 20 213 0.0 0.0 0.00 0.13 0.13 99 1012.2
20260507154944 20 217 0.0 0.0 0.00 0.13 0.13 99 1012.2
20260507154441 20 245 0.0 0.0 0.00 0.13 0.13 99 1012.2
20260507153938 20 229 0.0 0.0 0.00 0.13 0.13 99 1012.4
20260507153435 20 224 0.0 0.0 0.00 0.13 0.13 99 1012.2
20260507152931 20 240 0.0 0.0 0.00 0.13 0.13 99 1011.8
20260507152427 20 222 0.0 0.0 0.00 0.13 0.13 99 1011.5
20260507151923 20 195 0.0 0.0 0.00 0.13 0.13 99 1011.2
20260507151420 20 201 0.0 0.0 0.00 0.13 0.13 99 1011.3
20260507150917 20 190 0.0 0.0 0.00 0.13 0.13 99 1011.4
20260507150414 20 184 0.0 0.0 0.00 0.13 0.13 99 1011.6
20260507145910 20 166 0.0 0.0 0.00 0.13 0.13 99 1011.7
20260507145406 20 355 0.0 0.0 0.00 0.13 0.13 99 1011.6
20260507144903 20 234 0.0 0.0 0.00 0.13 0.13 99 1011.4
20260507144400 20 229 0.0 0.0 0.00 0.13 0.13 99 1011.9
20260507143857 20 197 0.0 0.0 0.00 0.13 0.13 99 1011.2
20260507143354 20 211 0.0 0.0 0.00 0.13 0.13 99 1011.4
20260507142851 20 210 0.0 0.0 0.00 0.13 0.13 99 1011.1
20260507142347 20 200 0.0 0.0 0.00 0.13 0.13 99 1011.8
20260507141844 20 217 0.0 0.0 0.00 0.13 0.13 99 1012.0
20260507141340 20 215 0.0 0.0 0.00 0.13 0.13 99 1011.8
20260507140837 20 154 0.0 0.0 0.00 0.13 0.13 99 1012.0
20260507140334 20 184 0.0 0.0 0.00 0.13 0.13 99 1012.4
20260507135832 20 205 0.0 0.0 0.00 0.13 0.13 99 1012.4
20260507135328 20 182 0.0 0.0 0.00 0.13 0.13 99 1012.3
20260507134825 20 182 0.0 0.0 0.00 0.13 0.13 99 1011.8
20260507134321 20 219 0.0 0.0 0.00 0.13 0.13 99 1011.9
20260507133817 20 213 0.0 0.0 0.00 0.13 0.13 99 1012.6
20260507133313 20 205 0.0 0.0 0.00 0.13 0.13 99 1012.7
20260507132812 20 252 0.0 0.0 0.00 0.13 0.13 99 1012.7
20260507132308 20 225 0.0 0.0 0.00 0.13 0.13 99 1011.9
20260507131805 20 221 0.0 0.0 0.00 0.13 0.13 99 1012.3
20260507131302 20 234 0.0 0.0 0.00 0.13 0.13 99 1012.0
20260507130758 20 237 0.0 0.0 0.00 0.13 0.13 99 1012.1
20260507130256 20 206 0.0 0.0 0.00 0.13 0.13 99 1012.0
20260507125755 20 229 0.0 0.0 0.00 0.13 0.13 99 1012.2
20260507125252 20 211 0.0 0.0 0.00 0.13 0.13 99 1012.0